Flag for U.S.A. Weather past 2 weeks in St. Louis, Missouri, U.S.A.

Now
59 °F

Clear.


Feels Like: 58 °F
Forecast: 42 / 63 °F
Wind: 8 mph from Northeast

Location: Lambert-St. Louis International Airport

Current Time: Oct 21, 2014 at 8:55:53 PM

Latest Report: Oct 21, 2014 at 7:51 PM


Visibility: 10 mi

Pressure: 30.16 "Hg

Humidity: 54%

Dew point: 42 °F

Location of St. LouisLocation

Historic Weather in St. Louis — Graph

°F

St. Louis temperature yesterday

Maximum temperature yesterday: 74 °F (at 2:51 PM)
Minimum temperature yesterday: 53 °F (at 11:51 PM)
Average temperature yesterday: 62 °F

Past Weeks' High & Low Weather Summary

 TemperatureHumidityPressure
High78 °F (Oct 7, 2:51 PM)97% (Oct 13, 5:51 AM)30.26 "Hg (Oct 13, 5:51 AM)
Low43 °F (Oct 19, 3:51 AM)31% (Oct 7, 3:51 PM)29.42 "Hg (Oct 14, 5:51 AM)
Average59 °F72%29.93 "Hg
* Reported Oct 6 6:51 PM — Oct 21 6:51 PM, St. Louis, Weather by CustomWeather, © 2014

Note: Actual official high and low records may vary slightly from our data, if they occured in-between our weather recording intervals... More about our weather records

Advertising

St. Louis weather history for previous 24 hours

 ConditionsComfort  
Time TempWeatherWind HumidityBarometerVisibility
6:51 PM
Oct 21
62 °FSunny.6 mph50%30.14 "Hg10 mi
5:51 PM64 °FSunny.8 mph45%30.12 "Hg10 mi
4:51 PM66 °FSunny.7 mph43%30.11 "Hg10 mi
3:51 PM67 °FSunny.8 mph42%30.11 "Hg10 mi
2:51 PM67 °FSunny.8 mph44%30.11 "Hg10 mi
1:51 PM67 °FSunny.9 mph45%30.11 "Hg10 mi
12:51 PM65 °FSunny.12 mph51%30.13 "Hg10 mi
11:51 AM63 °FSunny.6 mph54%30.14 "Hg10 mi
10:51 AM60 °FSunny.5 mph58%30.14 "Hg10 mi
9:51 AM57 °FSunny.6 mph69%30.13 "Hg10 mi
8:51 AM55 °FSunny.3 mph72%30.11 "Hg10 mi
7:51 AM50 °FClear.5 mph80%30.09 "Hg10 mi
6:51 AM49 °FClear.No wind80%30.08 "Hg10 mi
5:51 AM49 °FClear.No wind80%30.06 "Hg10 mi
4:51 AM49 °FClear.No wind84%30.04 "Hg9 mi
3:51 AM50 °FClear.3 mph80%30.02 "Hg9 mi
2:51 AM50 °FClear.5 mph80%30.02 "Hg10 mi
1:51 AM52 °FClear.3 mph75%30.01 "Hg10 mi
12:51 AM53 °FClear.3 mph74%30.01 "Hg9 mi
11:51 PM
Oct 20
53 °FClear.No wind77%30.01 "Hg10 mi
10:51 PM54 °FClear.5 mph74%30.02 "Hg10 mi
9:51 PM57 °FClear.No wind62%30.02 "Hg10 mi
8:51 PM60 °FClear.5 mph56%30.00 "Hg10 mi
Weather by CustomWeather, © 2014

See weather overviewHow to use our weather pages